Regional Weather Roundup
Issued by NWS

Home | Current Version | Previous Version | Text Only | Print | Product List | Glossary On
Versions: 1 2 3 4 5 6 7 8 9 10 11 12 13 14 15 16 17 18 19 20 21 22 23 24 25 26 27 28 29 30 31 32 33 34 35 36 37 38 39 40 41 42 43 44 45 46 47 48 49 50
000
ASUS43 KMPX 311110
RWRMN
WEATHER ROUNDUP FOR MINNESOTA
NATIONAL WEATHER SERVICE TWIN CITIES/CHANHASSEN MN
600 AM CDT SUN AUG 31 2014


NOTE: "FAIR" INDICATES FEW OR NO CLOUDS BELOW 12,000 FEET WITH NO
SIGNIFICANT WEATHER AND/OR OBSTRUCTIONS TO VISIBILITY. N/A MEANS
CURRENT SKY AND/OR WEATHER CONDITIONS ARE NOT AVAILABLE.

MNZ060>063-068>070-311200-
   Twin Cities Metro

CITY           SKY/WX    TMP DP  RH WIND       PRES   REMARKS
TWIN CITIES    CLOUDY    62  62 100 SE9       29.84S FOG
ST PAUL        MOCLDY    62  61  96 SE8       29.85S
CRYSTAL        PTCLDY    64  60  87 SE9       29.82S
BLAINE         PTCLDY    63  63 100 E8        29.84S
LAKEVILLE      FOG       63  63 100 SE6       29.84S VSB 3/4
EDEN PRAIRIE   CLOUDY    63  62  97 SE9       29.82F FOG
SOUTH ST PAUL  CLOUDY    63  61  93 SE3       29.85S
LAKE ELMO      FAIR      61  59  94 CALM      29.87R
$$
MNZ001>005-007-008-013>017-022>024-027-028-311200-
   Northwest Minnesota

CITY           SKY/WX    TMP DP  RH WIND       PRES   REMARKS
BEMIDJI        CLOUDY    63  60  91 S7        29.78R
HALLOCK        LGT RAIN  63  61  94 SE13      29.66F
ROSEAU         CLOUDY    61  55  82 SE5       29.74S
WARROAD        CLOUDY    61  55  82 SE6       29.76R
THIEF RVR FALL CLOUDY    61  59  94 SE9       29.72F
CROOKSTON      RAIN      61  61 100 SE20      29.64F
FOSSTON        CLOUDY    59  57  94 CALM      29.74F
DETROIT LAKES  CLOUDY    63  61  94 SE9       29.74F
MOORHEAD       TSTM      63  63 100 E6        29.69F
PARK RAPIDS    CLOUDY    64  62  93 SE13      29.77S
MAHNOMEN       PTSUNNY   61  60  95 SE10      29.72F
$$
MNZ006-009>011-018-025>026-311200-
   North Central Minnesota

CITY           SKY/WX    TMP DP  RH WIND       PRES   REMARKS
BAUDETTE       CLOUDY    60  58  92 VRB5      29.77S
FLAG ISLAND    CLOUDY    63  61  94 S20       29.74S
INTL FALLS     CLOUDY    60  58  92 SE7       29.81F
WASKISH        CLOUDY    63  61  94 SE7       29.78R
BIG FORK       CLOUDY    61  57  88 S7        29.83R
LONGVILLE      CLOUDY    61  61 100 SE9       29.80F
GRAND RAPIDS   CLOUDY    59  55  88 SE8       29.84R
CRANE LAKE     MOCLDY    55  55 100 CALM      29.86S
ORR            PTCLDY    57  54  88 SE7       29.81F
COOK           PTCLDY    57  55  94 CALM      29.84F
WALKER         CLOUDY    63  60  90 SE9       29.78F
$$
MNZ012-019>021-037-311200-
   Northeast Minnesota

CITY           SKY/WX    TMP DP  RH WIND       PRES   REMARKS
DULUTH         CLOUDY    59  56  89 SE10      29.87F
ELY            MOCLDY    55  54  94 CALM      29.88F
HIBBING        CLOUDY    59  56  89 SE10      29.85F
EVELETH        CLOUDY    57  55  94 CALM      29.87F
DULUTH HARBOR  PTCLDY    61  57  88 E6        29.88S
TWO HARBORS    CLOUDY    57  54  88 E7        29.87F HAZE
SILVER BAY     MOCLDY    54  54 100 CALM      29.88F FOG
GRAND MARAIS     N/A     51  50  96 CALM      29.91F
G MARAIS ARPRT FOG       41  39  93 CALM      29.93F VSB 1/2
$$
MNZ029>031-032-039>041-046>048-054>057-064-311200-
   West Central Minnesota

CITY           SKY/WX    TMP DP  RH WIND       PRES   REMARKS
FERGUS FALLS   CLOUDY    64  63  94 SE15G22   29.67F
WHEATON        MOCLDY    61  59  94 SE15      29.66F
MORRIS         CLOUDY    64  63  94 SE17G23   29.67F
ALEXANDRIA     CLOUDY    64  62  93 SE16G23   29.75F
ELBOW LAKE     FAIR      64  62  94 SE12G20   29.68F
WADENA         CLOUDY    63  61  94 SE9       29.75F
GLENWOOD       LGT RAIN  63  63 100 SE9       29.75F
APPLETON       MOCLDY    64  61  88 SE15      29.68F
BENSON         CLOUDY    64  63  94 S15       29.70F
ORTONVILLE     PTCLDY    63  59  88 SE12      29.67F
MADISON        PTCLDY    66  63  88 SE13G18   29.67F
WILLMAR        LGT RAIN  64  63  94 SE17      29.75F
$$
MNZ033>034-036-042>043-049>051-058-059-311200-
   Central Minnesota

CITY           SKY/WX    TMP DP  RH WIND       PRES   REMARKS
ST CLOUD       CLOUDY    63  60  90 SE9       29.80F
SAUK CENTRE    PTSUNNY   63  61  94 SE10      29.77F
PAYNESVILLE    HVY RAIN  61  60  99 E12       29.78F
AITKIN         MOCLDY    63  57  82 SE3       29.84R
PINE RIVER     CLOUDY    63  61  94 SE10      29.84F
BRAINERD       CLOUDY    59  58  96 SE8       29.82S
STAPLES        CLOUDY    63  61  94 SE7G16    29.77F
LONG PRAIRIE   CLOUDY    61  61 100 E7        29.78F
LITTLE FALLS   CLOUDY    61  59  94 SE8       29.80F
LITCHFIELD     MOCLDY    64  64 100 SE8       29.79F
BUFFALO        MOCLDY    62  60  93 E3        29.82S
MAPLE LAKE     MOCLDY    64  63  97 E7        29.81F
$$
MNZ037-044-045-052-053-311200-
   East Central Minnesota

CITY           SKY/WX    TMP DP  RH WIND       PRES   REMARKS
PRINCETON      CLOUDY    63  61  94 E8        29.84R
MORA           CLOUDY    55  55 100 SE3       29.87R
CAMBRIDGE      CLEAR     63  54  72 SE5       29.83R
RUSH CITY      CLOUDY    58  57  97 SE6       29.86R
MOOSE LAKE     CLOUDY    59  55  88 CALM      29.85R
HINCKLEY       CLOUDY    57  57 100 SE5       29.86R
CLOQUET        CLOUDY    57  55  94 SE6       29.87F
MCGREGOR       CLOUDY    59  57  94 SE9       29.87R
$$
MNZ071>073-080-081-089-090-097-098-311200-
   Southwest Minnesota

CITY           SKY/WX    TMP DP  RH WIND       PRES   REMARKS
MONTEVIDEO     MOCLDY    63  63 100 S12       29.71F
GRANITE FALLS  CLOUDY    63  62  96 E12       29.71F
CANBY          PTCLDY    60  59  97 SE7       29.69F
MARSHALL       PTCLDY    63  57  82 S15       29.68F
REDWOOD FALLS  LGT RAIN  63  61  93 SE15      29.72F
OLIVIA         MOCLDY    63  59  88 E6        29.75F
PIPESTONE      PTCLDY    66  63  88 S17G24    29.71F
WINDOM         PTCLDY    64  61  88 SE15      29.76F
WORTHINGTON    MOCLDY    64  63  94 S14       29.77S
JACKSON        MOCLDY    63  59  88 S12       29.79F
TRACY          PTCLDY    65  62  89 S16G22    29.71F
SLAYTON        PTCLDY    63  62  96 S15       29.73F
$$
MNZ065>067-074>077-082>085-091>093-311200-
   South Central Minnesota

CITY           SKY/WX    TMP DP  RH WIND       PRES   REMARKS
MANKATO        PTCLDY    63  57  82 SE10      29.82S
NEW ULM        PTCLDY    63  63 100 SE12      29.78F
ST JAMES       MOCLDY    63  61  94 SE9       29.79F
FAIRMONT       MOCLDY    63  57  82 S12       29.81F
GLENCOE        PTCLDY    64  61  91 SE7       29.80S
FARIBAULT      PTCLDY    66  61  82 E6        29.84F
OWATONNA       CLEAR     63  61  94 SE8       29.84F
WASECA         PTCLDY    59  55  88 SE8       29.85F
ALBERT LEA     PTCLDY    63  63 100 SE5       29.86S FOG
$$
MNZ078>079-086>088-094>096-311200-
   Southeast Minnesota

CITY           SKY/WX    TMP DP  RH WIND       PRES   REMARKS
ROCHESTER      FOG       64  63  96 S7        29.89F VSB 1/2
RED WING       CLOUDY    63  61  94 SE7       29.86S
STANTON        CLOUDY    64  62  93 SE6       29.84S FOG
DODGE CENTER   FOG       64  63  94 SE13      29.87F VSB 1/2
WINONA         CLOUDY    63  61  94 SE5       29.89S
AUSTIN         CLEAR     59  59 100 SE3       29.86F FOG
PRESTON        FOG       62  62 100 CALM      29.90F VSB 1/4
$$
ABBREVIATIONS USED IN REMARKS
   TC - TEMPERATURES IN CELSIUS
  WCI - WIND CHILL INDEX
   HX - HEAT INDEX
  VSB - VISIBILITY
$$


USA.gov is the U.S. government's official web portal to all federal, state and local government web resources and services.